Powrót do katalogu

OPS 4682 DEB

AktywnyPO
NORAD 38389·DEBRIS·🇺🇸 United States

Wystrzelony Apr 3, 1965 z Vandenberg Space Force Base

Loading…

Następne Przeloty (najbliższe 24 godziny)

TLE

Starzejące sięSource: Space-Track

Epoka: Sep 9, 2026, 03:00 UTC

1 38389U 65027CS  26252.12517728  .00000272  00000-0  87893-3 0  9990
2 38389  90.3235  44.1971 0005229  63.2149 296.9507 13.00018905 92718

Śledź OPS 4682 DEB w czasie rzeczywistym z AllMySat

Download on the App Store